CDT,Max TemperatureF,Mean TemperatureF,Min TemperatureF,Max Dew PointF,MeanDew PointF,Min DewpointF,Max Humidity, Mean Humidity, Min Humidity, Max Sea Level PressureIn, Mean Sea Level PressureIn, Min Sea Level PressureIn, Max VisibilityMiles, Mean VisibilityMiles, Min VisibilityMiles, Max Wind SpeedMPH, Mean Wind SpeedMPH, Max Gust SpeedMPH,PrecipitationIn, CloudCover, Events, WindDirDegrees
2013-5-1,60,48,35,46,37,30,87,69,54,30.38,30.15,29.85,10,9,2,30,20,40,0.22,7,Rain-Snow,25
2013-5-2,42,37,32,34,30,27,93,75,57,30.51,30.44,30.32,10,8,2,30,18,36,1.06,4,Rain-Snow,11
2013-5-3,41,38,35,34,29,28,81,71,61,30.38,30.18,30.00,10,10,10,22,13,29,0.00,5,Rain,1
2013-5-4,46,40,33,41,35,30,87,81,76,30.12,30.02,29.94,10,8,2,24,16,31,0.00,8,Rain,10
2013-5-5,53,48,42,46,42,37,87,82,72,30.16,30.13,30.10,10,8,4,12,8,16,0.02,8,Rain,355
2013-5-6,66,58,50,52,48,45,87,76,52,30.16,30.11,30.05,10,7,3,9,5,,0.00,5,,349
2013-5-7,73,57,41,54,45,37,93,66,33,30.11,30.05,29.98,10,6,0,10,2,9,0.00,3,Fog,176
2013-5-8,71,63,55,59,53,48,88,72,56,30.01,29.96,29.90,10,10,5,9,3,,0.00,5,Rain,141
2013-5-9,69,63,57,55,54,50,88,74,56,29.99,29.92,29.86,10,10,10,20,8,29,0.00,5,Rain,358
2013-5-10,69,60,48,50,44,37,82,63,31,30.09,30.04,29.98,10,10,7,15,10,21,0.00,4,,358
2013-5-11,62,52,39,43,21,-4,81,37,7,30.27,30.19,30.04,10,10,10,26,8,36,0.00,1,,349
2013-5-12,66,48,30,34,16,-8,80,38,5,30.31,30.23,30.14,10,10,10,8,1,,0.00,1,,336
2013-5-13,82,62,42,52,35,21,70,39,10,30.15,30.04,29.88,10,10,10,22,7,29,0.00,1,,187
2013-5-14,98,76,53,55,40,10,82,38,4,29.88,29.77,29.68,10,10,10,29,9,36,0.00,1,,212
2013-5-15,82,71,60,52,44,34,72,39,17,29.92,29.86,29.81,10,10,7,18,8,24,0.00,1,,77
2013-5-16,86,73,60,63,56,46,83,58,31,29.90,29.85,29.78,10,10,7,16,5,23,0.00,2,,177
2013-5-17,84,73,62,61,57,54,82,59,35,29.93,29.89,29.84,10,10,10,14,6,17,0.00,1,,160
2013-5-18,86,73,60,64,59,55,82,61,37,29.93,29.85,29.72,10,10,10,18,7,25,0.00,2,,148
2013-5-19,86,72,57,64,57,52,88,74,33,29.83,29.67,29.47,10,10,2,43,11,56,1.88,3,Rain,173
2013-5-20,75,66,57,59,55,52,88,71,50,29.71,29.64,29.57,10,10,7,20,11,26,0.00,2,,206
2013-5-21,68,62,55,54,48,45,82,62,46,29.74,29.70,29.64,10,10,10,22,12,28,0.00,4,,260
2013-5-22,60,56,51,48,47,46,82,70,59,29.98,29.82,29.74,10,10,7,17,10,24,0.00,8,,300
2013-5-23,73,63,53,48,45,37,77,60,29,30.26,30.14,29.98,10,10,7,17,8,24,0.00,5,,32
2013-5-24,73,60,48,48,44,39,82,53,29,30.33,30.24,30.09,10,10,10,21,9,28,0.00,2,,142
2013-5-25,80,70,59,63,56,43,83,67,45,30.17,30.06,29.99,10,10,7,21,12,28,0.10,4,Rain,135
2013-5-26,84,73,62,66,62,55,83,69,54,30.04,29.95,29.87,10,10,10,21,12,28,0.00,5,,147
2013-5-27,75,67,59,63,59,55,88,77,65,29.91,29.79,29.68,10,9,0,45,15,54,2.32,5,Rain,100
2013-5-28,78,70,62,70,61,57,88,80,65,29.75,29.70,29.59,10,9,1,22,6,29,0.09,5,Rain,79
2013-5-29,75,68,60,66,61,55,94,78,69,29.79,29.71,29.61,10,9,1,23,10,33,2.83,6,Rain,169
2013-5-30,73,66,60,61,58,54,83,75,60,29.68,29.62,29.57,10,10,7,25,12,38,0.14,4,Rain,183
2013-5-31,78,68,57,63,55,48,94,65,39,29.74,29.69,29.62,10,9,0,18,7,24,0.00,1,Fog,212